Satellite: POLLUX
Catalog number: 35693
Epoch time:      09260.77133799
Element set:      49
Inclination:      051.6392 deg
RA of node:       188.8470 deg
Eccentricity:    0.0003399
Arg of perigee:   173.5523 deg
Mean anomaly:     186.5545 deg
Mean motion:   15.81808893 rev/day
Decay rate:     2.4591e-04 rev/day^2
Epoch rev:             776
Checksum:              347

Satellite: CASTOR
Catalog number: 35694
Epoch time:      09260.78714765
Element set:      47
Inclination:      051.6409 deg
RA of node:       188.9607 deg
Eccentricity:    0.0003667
Arg of perigee:   183.9743 deg
Mean anomaly:     176.1227 deg
Mean motion:   15.80877262 rev/day
Decay rate:     1.2853e-04 rev/day^2
Epoch rev:             776
Checksum:              339

/EX




_______________________________________________
Via the Keps mailing list courtesy of AMSAT-NA
http://amsat.org/mailman/listinfo/keps

--- ViaMAIL!/WC v1.60d
 * Origin: Chowdanet (401-724-4410) telnet://chowdanet.com  (1:323/120)